Weather History for St. Cloud, MN

Change the Weather History Date:

Wednesday, October 2, 2013

  Actual Average Record
Temperature  
Mean Temperature 55 °F 52 °F  
Max Temperature 74 °F 63 °F 90 °F (1953)
Min Temperature 36 °F 40 °F 11 °F (1974)
Degree Days  
Heating Degree Days 10 14  
Month to date heating degree days 17 27  
Since 1 July heating degree days 195 313  
Cooling Degree Days 0 0  
Month to date cooling degree days 0 0  
Year to date cooling degree days 578 463  
Growing Degree Days 5 (Base 50)    
Moisture  
Dew Point 42 °F    
Average Humidity 61    
Maximum Humidity 100    
Minimum Humidity 22    
Precipitation  
Precipitation 0.38 in 0.10 in 1.13 in (1982)
Month to date precipitation 0.38 0.20  
Year to date precipitation 22.58 23.24  
Snow  
Snow 0.00 in 0.00 in T in (1951)
Month to date snowfall 0.0 0.0  
Since 1 July snowfall 0.0 T  
Since 1 September snowfall 0.0 T  
Snow Depth 0.00 in    
Sea Level Pressure  
Sea Level Pressure 29.98 in    
Wind  
Wind Speed 7 mph (ENE)    
Max Wind Speed 26 mph    
Max Gust Speed 35 mph    
Visibility 10 miles    
Events Rain , Thunderstorm    
T = Trace of Precipitation, MM = Missing Value Source: NWS Daily Summary

Daily Weather History Graph

Daily Weather History Graph

Search for Another Location

Airport:

Trip Planner

Search our weather history database for the weather conditions in past years. The results will help you decide how hot, cold, wet, or windy it might be!

Date:

Astronomy

Oct. 02, 2013 Rise Set
Actual Time 7:16 AM CDT 6:54 PM CDT
Civil Twilight 6:46 AM CDT 7:23 PM CDT
Nautical Twilight 6:12 AM CDT 7:57 PM CDT
Astronomical Twilight 5:37 AM CDT 8:32 PM CDT
Moon 4:44 AM CDT (10/2) 5:34 PM CDT (10/2)
Length of Visible Light 12h 37m
Length of Day
11h 37m
Waning Crescent, 6% of the Moon is Illuminated
Oct 2
Waning Crescent
Oct 4
New
Oct 11
First Quarter
Oct 18
Full
Oct 26
Last Quarter

Hourly Weather History & Observations

Time (CDT) Temp. Dew Point Humidity Pressure Visibility Wind Dir Wind Speed Gust Speed Precip Events Conditions
12:53 AM 43.0 °F 39.0 °F 86% 30.03 in 10.0 mi Calm Calm - N/A   Clear
1:53 AM 41.0 °F 39.0 °F 93% 30.04 in 10.0 mi Calm Calm - N/A   Clear
2:53 AM 39.9 °F 37.9 °F 93% 30.04 in 10.0 mi Calm Calm - N/A   Clear
3:53 AM 37.9 °F 37.0 °F 97% 30.05 in 10.0 mi Calm Calm - N/A   Clear
4:53 AM 37.9 °F 36.0 °F 93% 30.05 in 10.0 mi Calm Calm - N/A   Clear
5:53 AM 37.0 °F 36.0 °F 96% 30.05 in 10.0 mi Calm Calm - N/A   Clear
6:53 AM 37.0 °F 36.0 °F 96% 30.06 in - Calm Calm - N/A   Clear
7:53 AM 39.0 °F 37.0 °F 93% 30.06 in 10.0 mi Calm Calm - N/A   Clear
8:53 AM 48.9 °F 43.0 °F 80% 30.07 in 10.0 mi Calm Calm - N/A   Clear
9:53 AM 57.0 °F 44.1 °F 62% 30.07 in 10.0 mi SE 4.6 mph - N/A   Clear
10:53 AM 66.9 °F 39.9 °F 37% 30.06 in 10.0 mi SE 9.2 mph - N/A   Clear
11:53 AM 71.1 °F 36.0 °F 28% 30.04 in 10.0 mi SE 9.2 mph - N/A   Clear
12:53 PM 72.0 °F 30.9 °F 22% 30.03 in 10.0 mi SE 13.8 mph - N/A   Clear
1:53 PM 73.0 °F 34.0 °F 24% 29.96 in 10.0 mi ESE 11.5 mph 20.7 mph N/A   Scattered Clouds
2:53 PM 73.0 °F 32.0 °F 22% 29.91 in 10.0 mi SE 20.7 mph 26.5 mph N/A   Partly Cloudy
3:53 PM 71.1 °F 34.0 °F 26% 29.90 in 10.0 mi SE 17.3 mph - N/A   Overcast
4:50 PM 62.6 °F 42.8 °F 48% 29.88 in 10.0 mi NNE 11.5 mph 18.4 mph N/A Thunderstorm Thunderstorm
4:53 PM 63.0 °F 42.1 °F 46% 29.91 in 10.0 mi NNE 12.7 mph - N/A Thunderstorm Thunderstorm
5:19 PM 55.4 °F 50.0 °F 82% 29.96 in 5.0 mi North 15.0 mph 34.5 mph 0.03 in Rain , Thunderstorm Heavy Thunderstorms and Rain
5:53 PM 54.0 °F 51.1 °F 90% 29.95 in 10.0 mi ENE 9.2 mph - 0.14 in Thunderstorm Thunderstorm
6:53 PM 54.0 °F 51.1 °F 90% 29.94 in 10.0 mi NE 10.4 mph - 0.00 in Rain , Thunderstorm Light Thunderstorms and Rain
6:58 PM 53.6 °F 51.8 °F 94% 29.90 in 10.0 mi NE 10.4 mph - 0.01 in Rain Light Rain
7:53 PM 53.1 °F 51.1 °F 93% 29.96 in 6.0 mi NE 10.4 mph 19.6 mph 0.12 in Rain Rain
8:53 PM 53.1 °F 50.0 °F 89% 29.94 in 9.0 mi ENE 9.2 mph - 0.12 in Rain Light Rain
9:53 PM 53.1 °F 50.0 °F 89% 29.93 in 10.0 mi NE 9.2 mph - 0.00 in   Mostly Cloudy
10:53 PM 52.0 °F 50.0 °F 93% 29.93 in 10.0 mi ENE 9.2 mph - N/A   Partly Cloudy
11:38 PM 51.8 °F 50.0 °F 94% 29.89 in 10.0 mi NE 6.9 mph - N/A   Scattered Clouds
11:53 PM 52.0 °F 50.0 °F 93% 29.91 in 10.0 mi NE 6.9 mph - N/A   Mostly Cloudy